Location: Flensburg
(54.6357°N, 9.5142°E)
Time: 17:47:28
(UTC+02:00)

ISS - Pass Details

Date: 04 January 2018
Orbit: 402 x 408 km, 51.6° (Epoch: 23 July)

Event Time Altitude Azimuth Distance (km) Brightness Sun altitude
Exits shadow 05:24:50 22° 114° (ESE) 982 -1.3 -27.2°
Drops below altitude 10° 05:26:23 10° 95° (E) 1,503 0.0 -27.0°
Sets 05:28:38 0° 85° (E) 2,373 1.4 -26.7°
